Volver al catálogo

ALSAT-3B

ActivoCienciaSSO
NORAD 67646·PAYLOAD·🇨🇳 China
Este nombre de satélite aún no ha sido confirmado por fuentes oficiales.

Lanzado Jan 31, 2026 desde Jiuquan Satellite Launch Center

Loading…

Próximos Pases (próximas 24 horas)

TLE

ActualizadoSource: Space-Track

Época: Sep 14, 2026, 11:47 UTC

1 67646U 26021A   26257.49111171  .00004462  00000-0  18904-3 0  9998
2 67646  97.4513 330.6681 0011630 205.3852 154.6815 15.23614665 34469

Sigue ALSAT-3B en tiempo real con AllMySat

Download on the App Store